Weather History for Horseshoe Bay, TX

Change the Weather History Date:

Saturday, February 2, 2013

  Actual Average (KBMQ) Record (KBMQ)
Temperature  
Mean Temperature 56 °F -  
Max Temperature 71 °F 58 °F 77 °F (1997)
Min Temperature 41 °F 38 °F 12 °F (2011)
Degree Days  
Heating Degree Days 9    
Growing Degree Days 6 (Base 50)    
Moisture  
Dew Point 43 °F    
Average Humidity 61    
Maximum Humidity 100    
Minimum Humidity 35    
Precipitation  
Precipitation 0.00 in - - ()
Sea Level Pressure  
Sea Level Pressure 30.21 in    
Wind  
Wind Speed 4 mph (NE)    
Max Wind Speed 9 mph    
Max Gust Speed 16 mph    
Visibility 10 miles    
Events      
Averages and records for this station are not official NWS values.
T = Trace of Precipitation, MM = Missing Value Source: NWS Daily Summary

Daily Weather History Graph

Daily Weather History Graph

Search for Another Location

Airport:

Trip Planner

Search our weather history database for the weather conditions in past years. The results will help you decide how hot, cold, wet, or windy it might be!

Date:

Astronomy

Feb. 02, 2013 Rise Set
Actual Time 6:23 AM MST 5:11 PM MST
Civil Twilight 5:58 AM MST 5:36 PM MST
Nautical Twilight 5:29 AM MST 6:04 PM MST
Astronomical Twilight 5:01 AM MST 6:33 PM MST
Moon 11:51 PM MST (2/2) 10:07 AM MST (2/2)
Length of Visible Light 11h 37m
Length of Day
10h 47m
Waning Gibbous, 59% of the Moon is Illuminated
Feb 2
Waning Gibbous
Feb 3
Last Quarter
Feb 10
New
Feb 17
First Quarter
Feb 25
Full

Hourly Weather History & Observations

Time (MST) Temp. Windchill Dew Point Humidity Pressure Visibility Wind Dir Wind Speed Gust Speed Precip Events Conditions
12:15 AM 51.8 °F - 41.0 °F 67% 30.16 in 10.0 mi South 5.8 mph - N/A   Clear
12:55 AM 51.8 °F - 41.0 °F 67% 30.16 in 10.0 mi South 6.9 mph - N/A   Clear
1:15 AM 51.8 °F - 42.8 °F 71% 30.17 in 10.0 mi SW 5.8 mph - N/A   Clear
1:35 AM 51.8 °F - 42.8 °F 71% 30.16 in 10.0 mi SSW 6.9 mph - N/A   Clear
1:55 AM 51.8 °F - 42.8 °F 71% 30.15 in 10.0 mi SSW 3.5 mph - N/A   Clear
2:15 AM 51.8 °F - 42.8 °F 71% 30.16 in 10.0 mi Calm Calm - N/A   Clear
2:35 AM 51.8 °F - 42.8 °F 71% 30.17 in 10.0 mi South 4.6 mph - N/A   Clear
2:55 AM 51.8 °F - 42.8 °F 71% 30.17 in 10.0 mi South 4.6 mph - N/A   Clear
3:15 AM 51.8 °F - 42.8 °F 71% 30.17 in 10.0 mi Calm Calm - N/A   Clear
3:35 AM 50.0 °F - 42.8 °F 76% 30.17 in 10.0 mi SE 5.8 mph - N/A   Clear
3:55 AM 46.4 °F 45.2 °F 42.8 °F 87% 30.17 in 10.0 mi South 3.5 mph - N/A   Clear
4:15 AM 50.0 °F - 42.8 °F 76% 30.17 in 10.0 mi Calm Calm - N/A   Clear
4:35 AM 46.4 °F - 41.0 °F 81% 30.17 in 10.0 mi Calm Calm - N/A   Clear
5:15 AM 42.8 °F - 39.2 °F 87% 30.18 in 10.0 mi Calm Calm - N/A   Clear
5:35 AM 41.0 °F - 39.2 °F 93% 30.18 in 10.0 mi Calm Calm - N/A   Clear
5:55 AM 41.0 °F 39.0 °F 41.0 °F 100% 30.19 in 10.0 mi SE 3.5 mph - N/A   Clear
6:15 AM 41.0 °F - 41.0 °F 100% 30.19 in 10.0 mi Calm Calm - N/A   Clear
6:35 AM 41.0 °F - 41.0 °F 100% 30.20 in 10.0 mi Calm Calm - N/A   Clear
6:55 AM 41.0 °F - 41.0 °F 100% 30.20 in 10.0 mi Calm Calm - N/A   Clear
7:15 AM 42.8 °F 41.1 °F 42.8 °F 100% 30.21 in 10.0 mi SSE 3.5 mph - N/A   Clear
7:35 AM 50.0 °F - 44.6 °F 82% 30.21 in 10.0 mi Calm Calm - N/A   Clear
8:15 AM 55.4 °F - 46.4 °F 72% 30.22 in 10.0 mi Calm Calm - N/A   Clear
8:35 AM 60.8 °F - 48.2 °F 63% 30.23 in 10.0 mi SSW 6.9 mph - N/A   Clear
8:55 AM 60.8 °F - 50.0 °F 68% 30.23 in 10.0 mi SW 9.2 mph 16.1 mph N/A   Clear
9:15 AM 62.6 °F - 50.0 °F 63% 30.23 in 10.0 mi SW 5.8 mph - N/A   Clear
9:35 AM 64.4 °F - 50.0 °F 59% 30.23 in 10.0 mi SW 4.6 mph - N/A   Clear
9:55 AM 66.2 °F - 50.0 °F 56% 30.23 in 10.0 mi SW 4.6 mph - N/A   Clear
10:15 AM 68.0 °F - 50.0 °F 52% 30.23 in 10.0 mi SSW 5.8 mph - N/A   Clear
10:35 AM 69.8 °F - 50.0 °F 49% 30.23 in 10.0 mi SW 3.5 mph - N/A   Clear
10:55 AM 69.8 °F - 50.0 °F 49% 30.22 in 10.0 mi SW 5.8 mph - N/A   Clear
11:15 AM 69.8 °F - 48.2 °F 46% 30.21 in 10.0 mi WSW 4.6 mph - N/A   Clear
11:35 AM 71.6 °F - 46.4 °F 41% 30.21 in 10.0 mi North 6.9 mph - N/A   Clear
11:55 AM 69.8 °F - 48.2 °F 46% 30.20 in 10.0 mi North 4.6 mph - N/A   Clear
12:15 PM 71.6 °F - 46.4 °F 41% 30.20 in 10.0 mi Calm Calm - N/A   Clear
12:35 PM 71.6 °F - 46.4 °F 41% 30.19 in 10.0 mi North 5.8 mph - N/A   Clear
12:55 PM 71.6 °F - 46.4 °F 41% 30.18 in 10.0 mi North 6.9 mph - N/A   Clear
1:15 PM 71.6 °F - 46.4 °F 41% 30.18 in 10.0 mi North 8.1 mph - N/A   Clear
1:35 PM 71.6 °F - 46.4 °F 41% 30.18 in 10.0 mi North 6.9 mph - N/A   Clear
2:15 PM 71.6 °F - 44.6 °F 38% 30.18 in 10.0 mi NNW 4.6 mph - N/A   Clear
2:35 PM 71.6 °F - 44.6 °F 38% 30.18 in 10.0 mi North 3.5 mph - N/A   Clear
3:15 PM 71.6 °F - 44.6 °F 38% 30.17 in 10.0 mi North 4.6 mph - N/A   Clear
3:35 PM 71.6 °F - 42.8 °F 35% 30.17 in 10.0 mi North 3.5 mph - N/A   Clear
3:55 PM 71.6 °F - 44.6 °F 38% 30.18 in 10.0 mi North 5.8 mph - N/A   Clear
4:15 PM 69.8 °F - 42.8 °F 38% 30.18 in 10.0 mi North 6.9 mph - N/A   Clear
4:55 PM 68.0 °F - 44.6 °F 43% 30.20 in 10.0 mi North 4.6 mph - N/A   Clear
5:15 PM 64.4 °F - 44.6 °F 49% 30.20 in 10.0 mi NNE 3.5 mph - N/A   Clear
5:35 PM 64.4 °F - 44.6 °F 49% 30.21 in 10.0 mi NNE 5.8 mph - N/A   Clear
5:55 PM 62.6 °F - 42.8 °F 48% 30.22 in 10.0 mi NNE 3.5 mph - N/A   Clear
6:35 PM 59.0 °F - 42.8 °F 55% 30.24 in 10.0 mi Calm Calm - N/A   Clear
6:55 PM 55.4 °F - 42.8 °F 63% 30.25 in 10.0 mi Calm Calm - N/A   Clear
7:15 PM 59.0 °F - 42.8 °F 55% 30.26 in 10.0 mi Calm Calm - N/A   Clear
7:35 PM 55.4 °F - 42.8 °F 63% 30.27 in 10.0 mi Calm Calm - N/A   Clear
7:55 PM 59.0 °F - 41.0 °F 51% 30.28 in 10.0 mi NE 3.5 mph - N/A   Clear
8:15 PM 55.4 °F - 41.0 °F 58% 30.29 in 10.0 mi Calm Calm - N/A   Clear
8:35 PM 51.8 °F - 41.0 °F 67% 30.29 in 10.0 mi ENE 3.5 mph - N/A   Clear
8:55 PM 57.2 °F - 37.4 °F 48% 30.29 in 10.0 mi East 4.6 mph - N/A   Clear
9:15 PM 57.2 °F - 37.4 °F 48% 30.30 in 10.0 mi East 4.6 mph - N/A   Clear
9:35 PM 55.4 °F - 35.6 °F 47% 30.30 in 10.0 mi ENE 4.6 mph - N/A   Clear
9:55 PM 57.2 °F - 33.8 °F 41% 30.30 in 10.0 mi East 4.6 mph - N/A   Scattered Clouds
10:15 PM 53.6 °F - 35.6 °F 51% 30.30 in 10.0 mi Calm Calm - N/A   Clear
10:55 PM 46.4 °F - 37.4 °F 71% 30.31 in 10.0 mi Calm Calm - N/A   Clear
11:15 PM 46.4 °F - 37.4 °F 71% 30.31 in 10.0 mi Calm Calm - N/A   Mostly Cloudy
11:55 PM 44.6 °F 43.1 °F 37.4 °F 76% 30.31 in 10.0 mi South 3.5 mph - N/A   Overcast